Location: DARK SKY Beskydy - Park tmavé oblohy, www.darkskybeskydy.cz
(49.4926°N, 18.5016°E)
Time: 05:19:40
(UTC+02:00)

ISS - Pass Details

Date: 27 June 2024
Orbit: 409 x 424 km, 51.6° (Epoch: 18 July)

Event Time Altitude Azimuth Distance (km) Brightness Sun altitude
Exits shadow 02:12:35 10° 135° (SE) 1,454 -1.3 -14.9°
Maximum altitude 02:12:39 10° 134° (SE) 1,454 -1.3 -14.9°
Drops below altitude 10° 02:13:18 10° 123° (ESE) 1,482 -1.1 -14.8°
Sets 02:16:59 0° 81° (E) 2,357 0.5 -14.6°
